Temperature
15 15 15 15 15 15 15 15 15 15 15 15 15 15 15 15 15 15 15 15 15 15 15 15 15 15 15 15 15 15 15 15 15 15 15 15 15 15 15 15 14 15 15
15 15 15 15 15 15 15 15 15 15 15 15 15 15 15 15 15 15 15 15 15 15 15 15 15 15 15 15 15 15 15 15 15 15 15 15 15 15 15 15 14 14 15
15 15 15 15 15 15 15 15 15 15 15 15 15 15 15 15 15 15 15 15 15 14 14 14 14 14 15 15 15 15 15 15 15 14 14 14 14 14 14 14 14 14 14
15 14 14 15 15 15 15 15 15 15 15 15 15 15 15 15 15 14 14 14 14 14 14 14 15 14 14 14 14 14 14 14 14 14 13 13 13 14 14 14 14 14 14
14 14 14 14 15 15 15 15 14 14 14 15 15 15 14 14 14 14 14 14 14 14 14 14 14 14 14 14 14 14 14 14 14 13 13 13 13 14 14 14 14 14 14
14 14 14 14 14 14 14 14 14 14 14 14 14 14 14 14 14 14 14 14 14 14 14 14 14 14 14 14 14 14 14 14 13 13 13 13 13 14 14 14 14 14 14
14 14 14 14 14 14 14 14 14 14 14 14 14 14 14 14 14 14 14 14 14 14 14 14 14 14 14 14 14 14 14 14 13 13 13 13 13 13 14 14 13 13 13
14 14 13 14 14 14 14 14 14 14 14 14 14 14 14 14 14 14 14 14 14 14 14 14 14 14 14 14 14 13 13 13 13 13 13 13 13 13 13 13 13 13 13
14 13 13 13 13 13 14 14 14 14 14 14 14 14 14 14 14 14 14 14 14 14 13 14 14 13 13 13 13 13 13 13 12 12 12 13 13 13 13 13 13 13 13
13 13 13 13 13 13 13 13 13 13 13 13 13 14 14 14 14 14 13 14 14 13 13 13 13 13 13 13 13 13 13 12 12 12 12 12 12 12 12 12 12 12 12
13 13 13 13 13 13 13 13 13 13 13 13 13 13 13 13 13 13 13 13 13 13 13 13 13 13 13 13 13 12 12 12 12 12 12 12 12 12 12 12 12 12 12
13 13 13 13 13 13 13 13 13 13 13 13 13 13 13 13 13 13 13 13 13 13 13 13 13 13 12 12 12 12 12 11 12 12 12 12 12 12 12 12 12 12 12
13 13 13 13 13 13 13 13 13 13 13 13 13 13 13 13 13 12 12 12 12 12 12 12 12 12 12 12 12 11 11 11 11 11 11 11 11 12 12 12 12 12 12
12 13 13 12 12 13 13 12 13 13 13 13 13 12 12 12 12 12 12 12 12 12 12 12 12 12 12 12 12 11 11 11 11 11 11 11 11 11 11 11 11 12 12
12 12 12 12 12 12 12 12 12 12 12 12 12 12 12 12 12 12 12 12 12 12 12 12 11 11 11 11 11 11 11 11 11 11 11 11 11 11 11 11 11 11 11
12 12 12 12 12 12 12 12 12 12 12 12 12 12 12 12 12 12 12 12 12 11 11 11 11 11 11 11 11 11 11 10 10 10 10 10 11 11 11 10 10 10 11
12 12 12 12 12 12 12 12 12 12 12 12 12 12 12 12 12 11 11 11 11 11 11 11 11 11 11 11 10 10 10 10 10 10 10 10 10 10 10 10 10 10 10
12 12 11 11 11 11 12 12 11 11 11 11 11 11 11 11 11 11 11 11 11 11 11 11 11 11 10 10 10 10 10 10 10 10 10 10 10 10 10 10 10 10 10
12 12 11 11 11 11 11 11 11 11 11 11 11 11 11 11 11 11 11 11 11 11 10 10 10 10 10 10 10 9 9 9 9 9 9 9 10 10 10 10 10 10 10
11 11 11 11 11 11 11 11 11 11 11 11 10 10 10 10 11 10 11 11 10 10 10 10 10 10 10 9 9 9 9 9 9 9 9 9 9 9 9 9 9 9 9
11 11 11 11 11 11 11 10 10 10 10 10 10 10 10 10 10 10 10 10 10 10 10 10 10 9 9 9 9 8 8 8 8 8 8 8 9 9 9 9 9 9 9
11 11 11 11 11 10 10 10 10 10 10 10 10 10 10 10 10 10 10 10 10 10 9 9 9 9 9 9 8 7 7 7 7 8 8 8 8 8 8 8 8 8 8
11 11 11 10 10 10 10 10 10 9 9 9 9 9 9 9 9 9 9 9 9 9 9 9 9 9 9 8 8 8 7 8 7 7 7 8 8 8 8 8 8 8 8
10 10 10 10 10 10 10 10 10 9 9 9 9 9 9 9 9 9 9 9 9 9 9 9 9 9 8 8 8 8 8 8 7 6 7 7 7 7 7 7 7 7 7
10 10 10 10 10 10 9 9 9 9 9 9 9 9 8 8 8 9 9 9 9 8 8 8 8 8 8 8 8 7 7 7 8 7 6 7 7 7 7 7 7 7 7
9 9 9 9 9 9 9 9 9 9 9 8 8 8 8 8 8 8 8 8 8 8 8 8 8 8 8 7 7 7 7 7 7 7 7 7 7 7 7 7 7 7 7
Wind_Speed
6 9 12 11 11 10 10 10 11 11 11 10 11 11 11 10 10 10 10 10 9 10 10 10 11 11 11 11 12 12 11 12 12 12 12 11 11 11 11 9 9 12 12
7 11 13 12 11 11 10 10 10 11 10 10 10 10 10 10 10 10 9 10 10 10 10 10 10 11 11 11 11 11 11 11 11 10 10 10 10 10 10 9 9 11 11
7 11 13 12 12 11 11 10 10 10 10 10 9 10 10 10 10 10 9 9 9 10 10 10 10 10 11 11 10 11 10 10 10 8 6 8 9 10 10 10 11 11 11
7 10 12 12 12 11 11 10 10 10 10 10 9 9 10 10 10 9 9 9 9 9 10 10 10 10 10 10 9 10 10 9 8 4 5 7 8 9 9 10 10 10 10
7 9 11 12 11 11 11 11 10 10 10 10 10 9 10 10 10 9 9 9 9 10 10 10 10 9 9 9 9 9 9 8 6 4 6 6 7 8 8 9 9 9 9
7 8 10 12 11 11 11 11 11 11 10 10 10 10 10 10 10 10 9 10 10 10 10 10 9 9 9 8 9 9 8 7 5 5 6 6 7 8 8 8 8 8 9
7 7 8 11 11 11 11 11 11 11 10 9 9 10 10 10 10 10 10 10 10 10 10 9 9 8 8 8 8 8 8 5 4 6 5 6 7 8 8 8 8 9 9
7 7 7 8 11 11 11 11 11 11 10 10 9 9 10 10 10 10 10 10 10 9 9 9 8 8 8 8 8 8 7 4 5 5 5 6 7 7 8 8 8 8 8
5 6 6 7 9 11 11 11 11 11 11 10 10 9 10 10 10 10 10 10 9 9 8 8 7 7 8 8 8 8 6 3 4 5 5 6 8 8 8 8 8 9 9
5 5 5 6 7 9 10 11 11 11 10 10 10 9 10 10 10 10 10 9 9 9 8 8 7 7 8 8 8 7 6 4 5 5 4 6 8 8 8 8 8 8 8
5 5 4 4 5 7 9 10 11 11 10 10 10 10 10 9 9 9 9 9 9 9 8 8 8 8 8 8 8 7 5 4 5 4 5 7 7 7 7 7 7 7 7
7 6 5 5 5 6 7 8 9 9 9 9 8 10 9 7 7 8 10 9 9 9 9 9 9 9 7 7 7 6 4 5 4 4 5 6 6 6 6 6 7 7 7
7 6 5 5 5 6 6 6 6 7 7 7 8 9 8 7 6 7 7 8 8 8 7 8 7 6 5 5 5 5 4 4 3 4 5 5 5 5 5 6 6 6 6
7 7 6 6 5 6 6 6 6 6 6 6 7 8 7 5 6 6 5 6 6 6 5 5 4 5 5 5 5 5 5 4 3 4 5 5 4 5 5 5 5 5 5
8 8 7 6 6 6 6 5 5 6 6 7 7 8 8 6 6 5 5 5 6 5 5 5 5 5 5 5 5 5 5 5 4 4 5 5 4 4 5 5 4 5 5
10 9 8 8 8 7 6 6 6 6 6 7 7 8 8 7 6 5 5 5 5 5 5 5 5 5 4 4 4 4 4 5 4 4 4 5 5 5 5 5 4 4 4
10 9 9 8 8 8 8 7 6 6 6 6 7 8 8 7 7 6 5 5 5 6 6 5 5 4 4 4 4 3 3 4 4 4 4 4 5 6 5 5 4 4 4
10 9 9 8 9 9 8 8 7 7 7 6 7 7 8 8 8 7 5 5 6 6 6 5 5 4 4 4 3 3 2 2 3 4 3 3 4 4 5 6 5 4 3
10 10 9 9 10 9 8 7 7 7 7 6 7 7 8 9 9 7 6 5 7 5 5 5 5 5 5 4 3 2 2 2 2 3 3 3 3 3 4 5 5 4 2
9 9 9 9 9 8 7 6 5 6 6 6 7 7 9 9 9 7 5 7 7 6 5 5 6 5 5 5 4 2 1 1 2 2 2 3 3 3 3 4 4 4 3
8 9 9 9 10 8 7 7 6 6 6 6 6 8 9 9 9 7 5 6 7 6 7 7 6 6 5 5 4 2 1 1 1 2 2 2 2 2 2 3 3 3 3
9 10 10 10 10 10 8 7 6 6 5 6 5 7 8 9 9 8 7 6 7 7 8 8 7 6 5 5 4 3 3 3 2 2 2 2 2 2 2 2 2 2 2
9 10 9 10 10 10 9 6 5 5 4 5 6 6 7 8 9 9 8 7 7 7 7 9 9 9 7 6 5 3 3 4 3 3 4 3 3 3 3 2 2 2 2
9 9 9 10 9 9 9 9 10 8 8 8 6 6 6 8 9 9 9 8 8 7 8 8 9 8 8 7 5 3 2 1 3 3 3 4 4 4 4 3 3 3 2
8 8 8 9 9 9 10 10 10 9 8 6 6 7 7 6 8 8 8 8 8 7 8 9 9 8 8 8 6 4 3 1 2 3 3 4 4 4 5 5 4 4 4
6 6 7 8 9 9 10 10 11 10 9 8 8 8 7 6 6 8 8 8 8 7 8 9 9 10 8 8 7 6 5 4 4 3 3 4 4 4 5 5 5 5 4
Wind_Direction
163 160 153 152 149 145 142 138 139 138 136 134 136 137 136 133 130 129 128 126 124 121 119 116 113 109 106 101 99 98 96 92 92 90 89 88 90 91 90 90 95 90 86
157 161 153 154 151 149 146 143 140 141 141 139 136 136 137 138 135 134 132 130 128 124 121 117 114 111 109 105 102 99 97 94 93 94 98 98 93 93 92 80 71 88 90
154 160 158 155 153 152 149 145 143 143 145 142 139 138 137 137 138 138 132 133 131 128 124 120 115 112 110 107 105 104 102 99 98 106 129 113 102 96 95 88 84 88 90
153 162 161 153 155 154 152 150 148 147 147 147 145 141 143 139 136 133 130 129 126 124 123 119 117 115 113 112 110 108 107 106 107 138 121 107 106 99 99 95 87 85 88
153 160 156 155 158 157 155 155 154 153 151 151 150 146 146 144 139 134 131 127 123 121 119 117 118 117 115 116 116 115 112 111 119 130 106 105 103 104 103 98 92 86 86
151 155 157 159 162 161 159 159 159 157 154 152 152 150 149 146 142 137 131 124 121 121 119 118 119 119 118 119 120 119 117 122 144 115 111 106 103 104 104 101 98 92 93
151 155 156 165 166 166 163 161 160 159 155 153 152 151 152 149 144 137 131 126 124 122 120 120 120 121 121 121 121 120 119 126 124 114 110 103 97 100 106 105 101 96 95
152 155 159 162 171 169 166 165 167 165 160 158 158 154 150 146 142 139 134 130 127 123 122 124 124 123 122 118 117 119 121 135 120 111 112 108 101 106 107 105 102 98 95
153 157 166 174 175 173 170 171 168 167 165 164 161 157 153 148 145 141 139 137 134 131 128 127 127 126 125 119 114 115 118 130 124 113 107 103 108 109 107 106 102 98 95
160 164 171 181 184 182 177 173 168 165 167 167 162 158 152 149 147 144 146 141 137 134 131 130 132 129 122 119 115 115 126 148 125 118 107 102 106 110 107 104 105 101 97
177 176 177 184 190 189 182 176 172 167 170 170 166 158 158 164 160 158 152 144 141 138 137 135 133 126 121 121 120 123 142 139 125 113 103 97 108 114 112 107 107 106 104
191 188 189 195 196 196 186 179 181 178 176 180 176 172 174 169 163 159 146 145 145 141 141 137 135 136 143 140 137 150 146 138 127 117 103 99 108 116 116 113 112 107 105
199 195 198 203 201 198 186 180 179 178 177 181 180 178 174 167 160 159 155 152 152 152 151 144 149 155 155 149 156 158 147 138 129 118 107 105 115 123 119 115 117 117 110
203 201 200 202 197 193 184 181 183 180 176 175 177 181 176 169 171 166 163 164 163 166 160 161 166 158 156 157 158 156 154 147 133 119 104 100 110 119 121 122 122 127 124
210 206 202 200 200 192 183 181 184 183 180 175 175 181 180 173 174 171 168 168 169 166 166 166 166 162 160 157 155 156 153 149 140 131 117 99 109 121 126 123 121 127 132
213 212 206 203 200 194 191 187 185 184 180 177 178 181 181 179 172 170 168 169 169 169 169 171 167 163 159 155 152 153 153 149 145 143 135 119 108 111 116 115 108 116 135
216 213 209 206 202 197 196 194 187 185 182 181 181 183 182 180 176 174 171 171 173 171 166 165 161 162 156 151 147 144 145 150 147 147 143 134 125 107 109 114 110 102 112
213 211 208 204 202 201 198 194 187 186 187 187 182 182 185 183 181 179 175 174 172 170 168 166 164 163 158 156 148 142 140 140 152 148 143 141 141 138 112 103 108 109 104
210 208 206 203 199 196 194 191 187 186 188 189 185 183 184 186 185 184 180 174 172 170 172 173 172 170 164 153 143 140 143 158 157 155 151 142 141 149 145 121 114 108 107
208 205 204 201 197 190 185 186 186 188 190 191 191 189 186 189 187 188 182 177 174 175 175 177 175 174 168 155 137 121 117 161 173 177 171 157 150 155 157 154 149 133 132
205 203 201 198 194 187 183 185 189 195 194 195 194 194 191 190 190 189 184 180 183 184 182 179 171 167 165 153 142 137 130 181 212 204 196 187 176 172 166 171 173 175 160
201 200 199 198 192 190 191 188 190 192 199 200 196 199 197 192 191 192 188 186 188 187 184 182 173 172 174 180 181 173 187 205 216 222 226 220 200 177 175 181 178 183 194
201 199 197 196 194 192 188 181 173 182 194 198 201 203 204 200 195 194 193 190 193 190 189 190 186 182 181 193 198 195 196 209 199 208 220 215 206 196 191 180 186 191 199
203 197 197 196 193 190 186 187 188 195 201 205 201 200 201 205 202 197 196 195 197 197 194 195 194 193 187 191 202 231 259 209 200 196 209 218 221 218 210 199 200 201 200
198 192 193 193 194 192 191 194 199 204 206 202 197 196 198 204 207 203 200 198 200 202 200 198 196 197 199 198 198 203 207 219 227 222 216 212 219 226 224 218 211 209 208
194 191 191 192 195 194 195 197 202 205 203 200 201 198 200 203 206 207 203 201 201 203 203 203 199 199 203 205 204 207 207 208 216 224 229 213 220 220 223 221 220 214 214
Height
1519 1521 1522 1524 1525 1527 1528 1529 1530 1531 1533 1533 1534 1535 1535 1536 1537 1537 1538 1538 1539 1540 1541 1541 1542 1542 1542 1543 1543 1544 1544 1544 1545 1545 1545 1545 1546 1546 1547 1547 1547 1547 1547
1518 1520 1522 1524 1525 1527 1528 1529 1531 1532 1533 1533 1534 1535 1536 1536 1537 1538 1538 1539 1540 1540 1541 1542 1542 1543 1543 1544 1544 1544 1545 1545 1546 1546 1546 1547 1547 1548 1548 1548 1548 1548 1548
1518 1520 1521 1523 1525 1526 1528 1529 1530 1532 1533 1533 1534 1535 1536 1536 1537 1538 1539 1540 1540 1541 1542 1542 1543 1543 1544 1544 1544 1545 1545 1546 1546 1547 1548 1549 1549 1549 1549 1549 1549 1549 1549
1518 1519 1521 1523 1524 1526 1527 1529 1530 1531 1532 1533 1534 1535 1536 1537 1538 1538 1539 1540 1541 1541 1542 1543 1543 1544 1544 1544 1545 1545 1546 1547 1547 1548 1550 1550 1550 1550 1550 1550 1550 1551 1551
1517 1519 1521 1522 1524 1526 1527 1528 1530 1531 1532 1533 1534 1535 1536 1537 1538 1539 1539 1540 1541 1541 1542 1543 1543 1544 1544 1545 1545 1546 1546 1547 1548 1549 1550 1550 1550 1550 1551 1551 1551 1551 1552
1517 1519 1520 1522 1524 1525 1527 1528 1529 1530 1532 1532 1534 1535 1536 1537 1538 1539 1539 1540 1541 1542 1542 1543 1544 1544 1545 1545 1546 1546 1547 1548 1549 1550 1550 1551 1551 1551 1551 1551 1552 1552 1552
1516 1518 1520 1522 1523 1525 1526 1527 1529 1530 1531 1532 1533 1534 1535 1537 1538 1539 1539 1540 1541 1542 1542 1543 1544 1544 1545 1546 1546 1547 1547 1548 1550 1550 1551 1551 1551 1551 1551 1552 1552 1552 1553
1516 1517 1519 1521 1523 1524 1526 1527 1528 1529 1530 1532 1533 1534 1535 1536 1537 1538 1539 1540 1541 1541 1542 1543 1544 1544 1545 1546 1546 1547 1548 1548 1550 1551 1551 1551 1551 1552 1552 1552 1553 1553 1553
1515 1516 1518 1520 1521 1523 1525 1526 1527 1529 1530 1531 1532 1534 1535 1536 1537 1538 1539 1540 1540 1541 1542 1542 1543 1544 1545 1546 1546 1547 1548 1549 1551 1551 1551 1552 1552 1552 1552 1552 1553 1553 1553
1514 1515 1517 1519 1520 1521 1523 1525 1526 1528 1529 1531 1532 1533 1535 1536 1537 1538 1539 1539 1540 1541 1541 1542 1543 1544 1545 1545 1546 1547 1548 1549 1551 1551 1551 1551 1552 1552 1552 1552 1553 1553 1553
1513 1514 1515 1517 1518 1520 1522 1523 1525 1526 1528 1530 1531 1532 1534 1535 1536 1537 1538 1539 1539 1540 1541 1542 1543 1543 1544 1545 1546 1547 1548 1549 1550 1551 1551 1551 1552 1552 1552 1552 1552 1553 1553
1511 1512 1514 1515 1516 1518 1520 1521 1523 1525 1526 1528 1530 1531 1532 1534 1535 1536 1537 1538 1539 1540 1540 1541 1542 1543 1544 1545 1545 1546 1548 1549 1550 1550 1550 1551 1551 1552 1552 1552 1552 1552 1553
1509 1510 1511 1513 1514 1515 1517 1519 1521 1523 1524 1526 1528 1530 1531 1532 1533 1535 1536 1537 1538 1539 1540 1540 1541 1542 1543 1544 1545 1546 1547 1548 1549 1550 1550 1550 1551 1551 1551 1552 1552 1552 1552
1506 1507 1509 1510 1511 1513 1515 1517 1519 1520 1522 1524 1526 1528 1529 1530 1531 1533 1534 1535 1536 1537 1538 1539 1540 1541 1542 1543 1544 1545 1546 1547 1548 1549 1549 1549 1550 1551 1551 1551 1551 1551 1552
1503 1504 1506 1507 1509 1510 1512 1514 1516 1518 1519 1521 1523 1525 1527 1528 1529 1531 1532 1533 1535 1536 1537 1538 1539 1540 1541 1542 1543 1544 1545 1546 1547 1548 1548 1548 1549 1549 1550 1550 1550 1551 1551
1499 1501 1502 1504 1506 1507 1509 1511 1513 1515 1517 1519 1521 1522 1524 1526 1527 1528 1529 1531 1533 1534 1536 1537 1538 1539 1540 1541 1542 1543 1544 1545 1546 1546 1547 1547 1548 1548 1549 1549 1549 1550 1550
1495 1497 1498 1500 1502 1504 1506 1508 1510 1512 1513 1516 1517 1519 1521 1523 1524 1526 1527 1529 1531 1532 1534 1535 1536 1537 1538 1539 1540 1542 1543 1544 1544 1545 1546 1546 1546 1547 1547 1548 1548 1548 1549
1491 1493 1495 1496 1498 1500 1502 1505 1507 1509 1511 1512 1514 1516 1518 1520 1522 1523 1525 1526 1528 1530 1531 1533 1534 1535 1536 1538 1539 1540 1541 1542 1543 1544 1544 1545 1545 1545 1546 1546 1547 1547 1547
1487 1488 1491 1492 1494 1497 1499 1501 1503 1506 1508 1509 1511 1513 1515 1517 1519 1520 1522 1524 1526 1528 1529 1531 1532 1533 1534 1535 1537 1538 1539 1540 1541 1542 1542 1543 1543 1544 1544 1544 1545 1545 1545
1482 1484 1486 1488 1490 1493 1495 1498 1500 1502 1504 1506 1508 1510 1512 1514 1515 1517 1519 1521 1523 1524 1526 1528 1529 1531 1532 1533 1534 1536 1537 1538 1539 1539 1540 1541 1541 1542 1542 1543 1543 1543 1543
1477 1479 1482 1484 1486 1489 1491 1493 1495 1498 1500 1502 1504 1506 1508 1510 1512 1514 1515 1517 1519 1521 1522 1524 1526 1528 1529 1530 1532 1534 1535 1536 1536 1537 1538 1538 1539 1539 1540 1541 1541 1541 1541
1473 1475 1477 1480 1482 1485 1487 1490 1492 1495 1497 1499 1500 1502 1504 1506 1508 1510 1511 1513 1515 1517 1519 1521 1522 1524 1525 1527 1529 1531 1533 1535 1534 1534 1535 1535 1536 1537 1537 1538 1538 1539 1539
1468 1470 1473 1476 1478 1481 1483 1486 1488 1491 1492 1494 1496 1497 1499 1501 1503 1505 1507 1509 1512 1513 1515 1517 1519 1520 1522 1524 1526 1528 1530 1530 1531 1531 1531 1532 1533 1534 1534 1535 1535 1536 1536
1464 1467 1469 1472 1474 1477 1479 1481 1484 1485 1487 1489 1491 1493 1495 1497 1499 1501 1503 1505 1508 1510 1511 1513 1515 1516 1518 1519 1522 1524 1526 1526 1527 1527 1528 1529 1530 1530 1531 1532 1532 1533 1533
1461 1463 1465 1468 1470 1473 1475 1477 1479 1481 1483 1485 1487 1489 1490 1493 1495 1497 1499 1501 1503 1505 1507 1509 1511 1513 1514 1516 1517 1519 1521 1522 1523 1524 1524 1525 1526 1527 1527 1528 1529 1529 1530
1457 1459 1461 1463 1466 1468 1470 1473 1475 1477 1479 1481 1483 1484 1487 1489 1490 1493 1495 1496 1499 1501 1503 1505 1506 1508 1510 1512 1514 1515 1517 1518 1519 1521 1521 1521 1522 1523 1524 1524 1525 1526 1526